Location: Huesca
(42.1318°N, 0.4078°W)
Time: 01:07:40
(UTC+02:00)

ESTCUBE 1 - Pass Details

Date: 02 May 2024
Orbit: 635 x 647 km, 97.8° (Epoch: 19 May)

Event Time Altitude Azimuth Distance (km) Brightness Sun altitude
Exits shadow 00:04:54 42° 263° (W) 906 ? -26.7°
Drops below altitude 10° 00:09:04 10° 334° (NNW) 2,032 ? -27.1°
Sets 00:11:22 0° 341° (NNW) 2,947 ? -27.3°
